TimeCST,TemperatureF,Dew PointF,Humidity,Sea Level PressureIn,VisibilityMPH,Wind Direction,Wind SpeedMPH,Gust SpeedMPH,PrecipitationIn,Events,Conditions,WindDirDegrees,DateUTC
12:09 AM,17.6,10.4,73,29.99,7.0,West,8.1,-,N/A,,Overcast,280,2013-01-03 06:09:00
12:21 AM,17.6,10.4,73,30.00,7.0,WNW,9.2,-,N/A,,Overcast,290,2013-01-03 06:21:00
12:37 AM,17.6,12.2,79,29.99,6.0,WNW,10.4,-,N/A,,Haze,300,2013-01-03 06:37:00
12:54 AM,17.1,12.0,81,30.06,6.0,WNW,8.1,-,N/A,,Haze,290,2013-01-03 06:54:00
1:09 AM,17.6,12.2,79,29.98,6.0,WNW,8.1,-,N/A,,Haze,290,2013-01-03 07:09:00
1:54 AM,16.0,12.0,84,30.07,6.0,WNW,8.1,-,N/A,,Overcast,300,2013-01-03 07:54:00
2:54 AM,16.0,10.9,81,30.07,6.0,West,9.2,-,N/A,,Haze,280,2013-01-03 08:54:00
3:54 AM,15.1,10.9,84,30.08,5.0,WNW,11.5,-,N/A,,Overcast,290,2013-01-03 09:54:00
4:30 AM,15.8,10.4,79,30.01,5.0,WNW,10.4,-,N/A,,Overcast,290,2013-01-03 10:30:00
4:54 AM,15.1,12.0,88,30.09,4.0,WNW,10.4,-,N/A,,Overcast,300,2013-01-03 10:54:00
5:54 AM,16.0,12.0,84,30.11,4.0,WNW,9.2,-,N/A,,Overcast,300,2013-01-03 11:54:00
6:19 AM,15.8,12.2,86,30.04,4.0,WNW,6.9,-,N/A,,Overcast,300,2013-01-03 12:19:00
6:52 AM,15.8,12.2,86,30.05,4.0,WNW,9.2,-,0.00,Snow,Light Snow,300,2013-01-03 12:52:00
6:54 AM,16.0,12.9,88,30.12,4.0,WNW,9.2,-,0.00,Snow,Light Snow,300,2013-01-03 12:54:00
7:26 AM,15.8,12.2,86,30.05,4.0,WNW,9.2,-,0.00,,Overcast,290,2013-01-03 13:26:00
7:54 AM,16.0,12.9,88,30.14,3.0,WNW,9.2,-,0.00,,Overcast,300,2013-01-03 13:54:00
8:06 AM,17.6,12.2,79,30.07,2.5,WNW,8.1,-,N/A,,Overcast,300,2013-01-03 14:06:00
8:23 AM,17.6,12.2,79,30.07,2.5,WNW,9.2,-,0.00,,Overcast,300,2013-01-03 14:23:00
8:52 AM,17.6,14.0,86,30.08,2.5,WNW,10.4,-,0.00,Snow,Light Snow,290,2013-01-03 14:52:00
8:54 AM,17.1,14.0,88,30.16,2.5,WNW,9.2,-,0.00,Snow,Light Snow,290,2013-01-03 14:54:00
9:05 AM,17.6,14.0,86,30.09,2.5,WNW,8.1,-,N/A,,Overcast,300,2013-01-03 15:05:00
9:17 AM,17.6,14.0,86,30.10,3.0,WNW,8.1,-,N/A,,Overcast,290,2013-01-03 15:17:00
9:41 AM,17.6,15.8,93,30.10,2.5,WNW,9.2,-,N/A,,Overcast,300,2013-01-03 15:41:00
9:54 AM,19.0,15.1,85,30.18,2.5,WNW,9.2,-,N/A,,Overcast,290,2013-01-03 15:54:00
10:45 AM,19.4,15.8,86,30.11,3.0,WNW,10.4,-,N/A,,Overcast,290,2013-01-03 16:45:00
10:54 AM,19.9,17.1,89,30.19,3.0,WNW,11.5,-,N/A,,Overcast,300,2013-01-03 16:54:00
11:54 AM,19.9,16.0,85,30.17,4.0,WNW,10.4,-,N/A,,Overcast,300,2013-01-03 17:54:00
12:54 PM,19.9,15.1,81,30.17,7.0,WNW,13.8,-,0.00,,Overcast,300,2013-01-03 18:54:00
1:34 PM,19.4,15.8,86,30.09,2.5,West,10.4,-,0.00,Snow,Light Snow,270,2013-01-03 19:34:00
1:41 PM,19.4,15.8,86,30.10,4.0,West,11.5,-,0.00,Snow,Light Snow,280,2013-01-03 19:41:00
1:54 PM,19.9,15.1,81,30.17,6.0,West,12.7,-,0.00,,Haze,280,2013-01-03 19:54:00
2:54 PM,19.0,14.0,81,30.18,6.0,West,10.4,-,N/A,,Haze,260,2013-01-03 20:54:00
3:54 PM,17.1,12.0,81,30.20,4.0,West,13.8,-,0.00,Snow,Light Snow,270,2013-01-03 21:54:00
4:54 PM,16.0,10.9,81,30.21,9.0,WNW,11.5,19.6,0.00,,Overcast,290,2013-01-03 22:54:00
5:54 PM,14.0,10.0,84,30.21,9.0,West,10.4,-,0.00,,Mostly Cloudy,260,2013-01-03 23:54:00
6:54 PM,12.0,8.1,84,30.20,8.0,West,9.2,-,N/A,,Clear,260,2013-01-04 00:54:00
7:54 PM,10.9,7.0,84,30.20,8.0,WSW,10.4,-,N/A,,Clear,250,2013-01-04 01:54:00
8:54 PM,9.0,5.0,84,30.18,9.0,WSW,11.5,-,N/A,,Clear,250,2013-01-04 02:54:00
9:54 PM,7.0,3.0,84,30.18,10.0,West,10.4,-,N/A,,Clear,260,2013-01-04 03:54:00
10:54 PM,7.0,1.9,80,30.16,10.0,WSW,11.5,-,N/A,,Clear,250,2013-01-04 04:54:00
11:54 PM,7.0,3.0,84,30.13,10.0,WSW,11.5,-,N/A,,Clear,250,2013-01-04 05:54:00